Location: Dealu Mare
(46.0500°N, 22.8167°E)
Time: 23:13:03
(UTC+00:00)

Cosmos 1269 Rocket - Pass Details

Date: 15 January 2026
Orbit: 769 x 775 km, 74.1° (Epoch: 13 February)

Event Time Altitude Azimuth Distance (km) Brightness Sun altitude
Rises 04:34:12 0° 202° (SSW) 3,236 7.2 -15.7°
Reaches altitude 10° 04:36:34 10° 203° (SSW) 2,314 6.4 -15.3°
Maximum altitude 04:41:50 82° 291° (WNW) 787 3.9 -14.4°
Drops below altitude 10° 04:47:10 10° 20° (NNE) 2,332 6.6 -13.5°
Sets 04:49:33 0° 22° (NNE) 3,264 7.3 -13.1°
